E20ZNR-1 Weather Reports


time (UTC)temp
C
wind
direction
speed
KPH
gust
KPH
rain 1hr
cm
rain 24hr
cm
rain mn
cm
humidity
%
barometer
mb
20260508084308 30 0 0.0 0.0 0.00 0.00 0.00 94 1004.0
20260508082742 31 0 0.0 0.0 0.00 0.00 0.00 86 1003.0
20260508081217 31 0 0.0 0.0 0.00 0.00 0.00 82 1003.0
20260508075652 31 0 0.0 0.0 0.00 0.00 0.00 79 1003.0
20260508074125 31 0 0.0 0.0 0.00 0.00 0.00 76 1004.0
20260508072600 31 0 0.0 0.0 0.00 0.00 0.00 72 1004.0
20260508071035 32 0 0.0 0.0 0.00 0.00 0.00 68 1004.0
20260508065509 32 0 0.0 0.0 0.00 0.00 0.00 64 1004.0
20260508063944 32 0 0.0 0.0 0.00 0.00 0.00 64 1004.0
20260508062417 32 0 0.0 0.0 0.00 0.00 0.00 57 1004.0
20260508060853 36 0 0.0 0.0 0.00 0.00 0.00 56 1003.0
20260508055328 38 0 0.0 0.0 0.00 0.00 0.00 44 1003.0
20260508053802 38 0 0.0 0.0 0.00 0.00 0.00 43 1004.0
20260508052238 39 0 0.0 0.0 0.00 0.00 0.00 49 1004.0
20260508050713 39 0 0.0 0.0 0.00 0.00 0.00 46 1004.0
20260508045148 40 0 0.0 0.0 0.00 0.00 0.00 49 1005.0
20260508043623 39 0 0.0 0.0 0.00 0.00 0.00 51 1005.0
20260508042059 40 0 0.0 0.0 0.00 0.00 0.00 54 1006.0
20260508040534 36 0 0.0 0.0 0.00 0.00 0.00 57 1006.0
20260508035009 38 0 0.0 0.0 0.00 0.00 0.00 58 1006.0
20260508033445 38 0 0.0 0.0 0.00 0.00 0.00 57 1006.0
20260508031919 37 0 0.0 0.0 0.00 0.00 0.00 58 1006.0
20260508030355 36 0 0.0 0.0 0.00 0.00 0.00 59 1006.0
20260508024830 38 0 0.0 0.0 0.00 0.00 0.00 57 1006.0
20260508023304 37 0 0.0 0.0 0.00 0.00 0.00 60 1006.0
20260508021739 38 0 0.0 0.0 0.00 0.00 0.00 58 1006.0
20260508020215 36 0 0.0 0.0 0.00 0.00 0.00 57 1006.0
20260508014649 43 0 0.0 0.0 0.00 0.00 0.00 40 1006.0
20260508013124 43 0 0.0 0.0 0.00 0.00 0.00 41 1006.0
20260508011558 43 0 0.0 0.0 0.00 0.00 0.00 42 1006.0
20260508010033 40 0 0.0 0.0 0.00 0.00 0.00 51 1006.0
20260508004508 37 0 0.0 0.0 0.00 0.00 0.00 58 1006.0
20260508002942 34 0 0.0 0.0 0.00 0.00 0.00 73 1006.0
20260508001416 33 0 0.0 0.0 0.00 0.00 0.00 79 1006.0
20260507235851 31 0 0.0 0.0 0.00 0.00 0.00 99 1005.0
20260507234327 28 0 0.0 0.0 0.00 0.00 0.00 99 1005.0
20260507232800 27 0 0.0 0.0 0.00 0.00 0.00 99 1005.0
20260507231234 26 0 0.0 0.0 0.00 0.00 0.00 99 1005.0
20260507225709 26 0 0.0 0.0 0.00 0.00 0.00 99 1005.0
20260507224142 26 0 0.0 0.0 0.00 0.00 0.00 99 1005.0
20260507222616 26 0 0.0 0.0 0.00 0.00 0.00 99 1005.0
20260507221051 26 0 0.0 0.0 0.00 0.00 0.00 99 1005.0
20260507215525 26 0 0.0 0.0 0.00 0.00 0.00 99 1004.0
20260507213959 26 0 0.0 0.0 0.00 0.00 0.00 99 1004.0
20260507212434 26 0 0.0 0.0 0.00 0.00 0.00 99 1004.0
20260507210909 26 0 0.0 0.0 0.00 0.00 0.00 99 1004.0
20260507205343 26 0 0.0 0.0 0.00 0.00 0.00 99 1004.0
20260507203817 26 0 0.0 0.0 0.00 0.00 0.00 99 1004.0
20260507202251 26 0 0.0 0.0 0.00 0.00 0.00 99 1004.0
20260507200726 26 0 0.0 0.0 0.00 0.00 0.00 99 1004.0
20260507195202 26 0 0.0 0.0 0.00 0.00 0.00 99 1004.0
20260507193637 26 0 0.0 0.0 0.00 0.00 0.00 99 1004.0
20260507192112 26 0 0.0 0.0 0.00 0.00 0.00 99 1004.0
20260507190546 26 0 0.0 0.0 0.00 0.00 0.00 99 1004.0
20260507185022 27 0 0.0 0.0 0.00 0.00 0.00 99 1005.0
20260507183456 27 0 0.0 0.0 0.00 0.00 0.00 99 1005.0
20260507181931 27 0 0.0 0.0 0.00 0.00 0.00 99 1005.0
20260507180406 27 0 0.0 0.0 0.00 0.00 0.00 99 1005.0
20260507174841 27 0 0.0 0.0 0.00 0.00 0.00 99 1005.0
20260507173315 27 0 0.0 0.0 0.00 0.00 0.00 99 1005.0
20260507171751 27 0 0.0 0.0 0.00 0.00 0.00 99 1005.0
20260507170226 27 0 0.0 0.0 0.00 0.00 0.00 99 1005.0
20260507164700 27 0 0.0 0.0 0.00 0.00 0.00 99 1005.0
20260507163135 27 0 0.0 0.0 0.00 0.00 0.00 99 1006.0
20260507161610 27 0 0.0 0.0 0.00 0.00 0.00 99 1006.0
20260507160044 27 0 0.0 0.0 0.00 0.00 0.00 99 1006.0
20260507154519 27 0 0.0 0.0 0.00 0.00 0.00 99 1006.0
20260507152954 27 0 0.0 0.0 0.00 0.00 0.00 99 1006.0
20260507151429 27 0 0.0 0.0 0.00 0.00 0.00 99 1006.0
20260507145904 27 0 0.0 0.0 0.00 0.00 0.00 99 1006.0
20260507144339 27 0 0.0 0.0 0.00 0.00 0.00 99 1006.0
20260507142814 28 0 0.0 0.0 0.00 0.00 0.00 99 1006.0
20260507141248 28 0 0.0 0.0 0.00 0.00 0.00 99 1005.0
20260507135722 28 0 0.0 0.0 0.00 0.00 0.00 99 1005.0
20260507134157 28 0 0.0 0.0 0.00 0.00 0.00 99 1004.0
20260507132632 28 0 0.0 0.0 0.00 0.00 0.00 99 1004.0
20260507131107 28 0 0.0 0.0 0.00 0.00 0.00 99 1004.0
20260507125540 28 0 0.0 0.0 0.00 0.00 0.00 99 1003.0
20260507124016 28 0 0.0 0.0 0.00 0.00 0.00 99 1003.0
20260507122450 28 0 0.0 0.0 0.00 0.00 0.00 99 1003.0
20260507120924 28 0 0.0 0.0 0.00 0.00 0.00 99 1003.0
20260507115358 28 0 0.0 0.0 0.00 0.00 0.00 99 1003.0
20260507113832 28 0 0.0 0.0 0.00 0.00 0.00 99 1003.0
20260507112307 28 0 0.0 0.0 0.00 0.00 0.00 99 1003.0
20260507110740 29 0 0.0 0.0 0.00 0.00 0.00 99 1003.0
20260507105215 29 0 0.0 0.0 0.00 0.00 0.00 99 1003.0
20260507103649 29 0 0.0 0.0 0.00 0.00 0.00 99 1002.0
20260507102123 29 0 0.0 0.0 0.00 0.00 0.00 98 1003.0
20260507100559 30 0 0.0 0.0 0.00 0.00 0.00 89 1003.0
20260507095033 30 0 0.0 0.0 0.00 0.00 0.00 82 1002.0
20260507093507 30 0 0.0 0.0 0.00 0.00 0.00 81 1002.0
20260507091941 30 0 0.0 0.0 0.00 0.00 0.00 81 1002.0
20260507090416 30 0 0.0 0.0 0.00 0.00 0.00 86 1002.0